Petersburg, AK

2:45 PM AKDT on August 22, 2017 (GMT -0800)
Johnson Petersburg

Weather History for PAPG - January, 2014

Change the Weather History Date:

Thursday, January 30, 2014

  Actual Average Record
Temperature  
Mean Temperature 30 °F -  
Max Temperature 37 °F 34 °F 53 °F (2000)
Min Temperature 24 °F 26 °F 7 °F (1990)
Degree Days  
Heating Degree Days 34    
Moisture  
Dew Point 28 °F    
Average Humidity 85    
Maximum Humidity 93    
Minimum Humidity 70    
Precipitation  
Precipitation 0.00 in - - ()
Sea Level Pressure  
Sea Level Pressure 30.09 in    
Wind  
Wind Speed 2 mph (SW)    
Max Wind Speed 6 mph    
Max Gust Speed -    
Visibility 8 miles    
Events Fog    
Averages and records for this station are not official NWS values.
T = Trace of Precipitation, MM = Missing Value Source: NWS Daily Summary

Daily Weather History Graph

Daily Weather History Graph

Search for Another Location

Airport or City:

Trip Planner

Search our weather history database for the weather conditions in past years. The results will help you decide how hot, cold, wet, or windy it might be!

Date:

Astronomy

Jan. 30, 2014 Rise Set
Actual Time 7:53 AM AKST 4:17 PM AKST
Civil Twilight 7:10 AM AKST 5:00 PM AKST
Nautical Twilight 6:24 AM AKST 5:46 PM AKST
Astronomical Twilight 5:40 AM AKST 6:30 PM AKST
Moon 7:14 AM AKST (1/30) 4:52 PM AKST (1/30)
Length of Visible Light 9h 49m
Length of Day
8h 24m
Waning Crescent, 0% of the Moon is Illuminated
Jan 30
Waning Crescent
Jan 30
New
Feb 6
First Quarter
Feb 14
Full
Feb 22
Last Quarter

Hourly Weather History & Observations

Time (AKST) Temp. Windchill Dew Point Humidity Pressure Visibility Wind Dir Wind Speed Gust Speed Precip Events Conditions
12:36 AM 35.6 °F - 33.8 °F 93% 30.00 in 10.0 mi Calm Calm - N/A   Overcast
5:55 AM 33.8 °F 28.6 °F 30.2 °F 87% 30.06 in 4.0 mi SSW 5.8 mph - N/A   Overcast
6:16 AM 33.8 °F 29.6 °F 30.2 °F 87% 30.06 in 4.0 mi WSW 4.6 mph - N/A   Overcast
6:36 AM 33.8 °F 30.8 °F 30.2 °F 87% 30.07 in 4.0 mi West 3.5 mph - N/A   Overcast
6:56 AM 33.8 °F - 30.2 °F 87% 30.07 in 3.0 mi Calm Calm - N/A   Overcast
7:16 AM 33.8 °F - 30.2 °F 87% 30.07 in 3.0 mi Calm Calm - N/A   Overcast
7:36 AM 33.8 °F - 30.2 °F 87% 30.08 in 3.0 mi Calm Calm - N/A   Overcast
7:55 AM 33.8 °F - 30.2 °F 87% 30.08 in 10.0 mi Calm Calm - N/A Fog Patches of Fog
8:16 AM 33.8 °F 29.6 °F 30.2 °F 87% 30.09 in 10.0 mi WSW 4.6 mph - N/A   Mostly Cloudy
8:56 AM 30.2 °F - 28.4 °F 93% 30.10 in 7.0 mi Calm Calm - N/A   Scattered Clouds
9:16 AM 30.2 °F - 28.4 °F 93% 30.10 in 7.0 mi Calm Calm - N/A   Scattered Clouds
9:56 AM 32.0 °F 28.7 °F 30.2 °F 93% 30.11 in 0.5 mi SSW 3.5 mph - N/A   Mostly Cloudy
10:16 AM 32.0 °F - 30.2 °F 93% 30.12 in 7.0 mi Calm Calm - N/A   Mostly Cloudy
10:36 AM 32.0 °F - 30.2 °F 93% 30.12 in 7.0 mi Calm Calm - N/A   Mostly Cloudy
10:56 AM 35.6 °F - 30.2 °F 81% 30.12 in 10.0 mi Calm Calm - N/A   Scattered Clouds
11:16 AM 35.6 °F - 30.2 °F 81% 30.12 in 10.0 mi Calm Calm - N/A   Scattered Clouds
11:36 AM 35.6 °F - 32.0 °F 87% 30.11 in 10.0 mi Calm Calm - N/A   Scattered Clouds
11:55 AM 35.6 °F - 30.2 °F 81% 30.11 in 10.0 mi Calm Calm - N/A   Partly Cloudy
12:36 PM 37.4 °F - 30.2 °F 75% 30.11 in 10.0 mi Calm Calm - N/A   Partly Cloudy
12:55 PM 37.4 °F - 30.2 °F 75% 30.10 in 10.0 mi Calm Calm - N/A   Partly Cloudy
1:16 PM 37.4 °F - 28.4 °F 70% 30.10 in 10.0 mi Calm Calm - N/A   Partly Cloudy
1:56 PM 37.4 °F 34.9 °F 30.2 °F 75% 30.10 in 10.0 mi NE 3.5 mph - N/A   Partly Cloudy
2:16 PM 37.4 °F - 28.4 °F 70% 30.09 in 10.0 mi Calm Calm - N/A   Partly Cloudy
2:36 PM 37.4 °F - 28.4 °F 70% 30.09 in 10.0 mi Calm Calm - N/A   Partly Cloudy
3:16 PM 33.8 °F - 28.4 °F 81% 30.08 in 10.0 mi Calm Calm - N/A   Clear
3:36 PM 33.8 °F 30.8 °F 28.4 °F 81% 30.08 in 10.0 mi South 3.5 mph - N/A   Clear
3:56 PM 32.0 °F 28.7 °F 26.6 °F 80% 30.08 in 10.0 mi South 3.5 mph - N/A   Clear
4:16 PM 30.2 °F 26.7 °F 26.6 °F 86% 30.08 in 10.0 mi SSW 3.5 mph - N/A   Clear
4:36 PM 30.2 °F 25.4 °F 26.6 °F 86% 30.09 in 10.0 mi South 4.6 mph - N/A   Clear
4:56 PM 30.2 °F 26.7 °F 26.6 °F 86% 30.09 in 10.0 mi SW 3.5 mph - N/A   Clear
5:16 PM 30.2 °F - 26.6 °F 86% 30.09 in 10.0 mi Calm Calm - N/A   Clear
5:36 PM - - - N/A% - - Calm Calm - N/A   Unknown
5:56 PM 28.4 °F - 24.8 °F 86% 30.08 in 10.0 mi Calm Calm - N/A   Clear
6:16 PM 28.4 °F 24.6 °F 24.8 °F 86% 30.08 in 10.0 mi WSW 3.5 mph - N/A   Clear
6:36 PM 28.4 °F - 26.6 °F 93% 30.08 in 10.0 mi Calm Calm - N/A   Clear
6:56 PM 28.4 °F - 26.6 °F 93% 30.08 in 10.0 mi Calm Calm - N/A   Clear
7:16 PM 28.4 °F - 24.8 °F 86% 30.08 in 10.0 mi Calm Calm - N/A   Clear
7:36 PM 28.4 °F 23.3 °F 24.8 °F 86% 30.08 in 10.0 mi SSW 4.6 mph - N/A   Clear
8:36 PM 28.4 °F - 24.8 °F 86% 30.08 in 10.0 mi Calm Calm - N/A   Clear
9:16 PM 26.6 °F - 24.8 °F 93% 30.08 in 10.0 mi Calm Calm - N/A   Clear
9:36 PM 26.6 °F - 23.0 °F 86% 30.08 in 10.0 mi Calm Calm - N/A   Clear
9:56 PM 26.6 °F 22.6 °F 23.0 °F 86% 30.08 in 10.0 mi West 3.5 mph - N/A   Clear
10:16 PM 24.8 °F 19.1 °F 21.2 °F 86% 30.08 in 0.2 mi WSW 4.6 mph - N/A   Overcast
10:36 PM 24.8 °F 20.5 °F 21.2 °F 86% 30.08 in 0.5 mi West 3.5 mph - N/A   Mostly Cloudy
11:36 PM 24.8 °F 20.5 °F 21.2 °F 86% 30.07 in 0.2 mi WSW 3.5 mph - N/A   Mostly Cloudy